This is the latest recevied weather packets stored in our database for station/object KA1JKB. If no packets are shown the sender has not sent any weather packets the latest 10 day(s).
| Time | Temp. | Humidity | Pressure | Rain* | Wind** | Luminosity | Snow |
|---|---|---|---|---|---|---|---|
| 1777853014 | 11.67° C | 68% | 1007.1 hPa | 0 mm | - | 13 W/m² | - |
| 1777852712 | 11.67° C | 67% | 1007.2 hPa | 0 mm | - | 16 W/m² | - |
| 1777852409 | 11.67° C | 69% | 1007.1 hPa | 0 mm | - | 19 W/m² | - |
| 1777852107 | 11.67° C | 68% | 1007.2 hPa | 0 mm | - | 24 W/m² | - |
| 1777851804 | 11.67° C | 68% | 1007.2 hPa | 0 mm | - | 30 W/m² | - |
| 1777851502 | 11.67° C | 67% | 1007.2 hPa | 0 mm | - | 37 W/m² | - |
| 1777851197 | 11.67° C | 67% | 1007.2 hPa | 0 mm | - | 34 W/m² | - |
| 1777850894 | 11.67° C | 67% | 1007.4 hPa | 0 mm | - | 36 W/m² | - |
| 1777850592 | 11.67° C | 67% | 1007.3 hPa | 0 mm | - | 46 W/m² | - |
| 1777850290 | 11.67° C | 65% | 1007.4 hPa | 0 mm | - | 59 W/m² | - |
| 1777849987 | 11.67° C | 66% | 1007.4 hPa | 0 mm | - | 58 W/m² | - |
| 1777849682 | 12.22° C | 65% | 1007.5 hPa | 0 mm | - | 56 W/m² | - |
| 1777849380 | 12.22° C | 64% | 1007.6 hPa | 0 mm | - | 57 W/m² | - |
| 1777849077 | 12.22° C | 63% | 1007.8 hPa | 0 mm | - | 58 W/m² | - |
| 1777848772 | 12.22° C | 63% | 1007.9 hPa | 0 mm | - | 49 W/m² | - |
| 1777848469 | 12.78° C | 62% | 1007.8 hPa | 0 mm | - | 55 W/m² | - |
| 1777848167 | 12.78° C | 61% | 1007.8 hPa | 0 mm | - | 60 W/m² | - |
| 1777847864 | 13.33° C | 60% | 1007.5 hPa | 0 mm | - | 49 W/m² | - |
| 1777847562 | 13.33° C | 60% | 1007.9 hPa | 0 mm | - | 49 W/m² | - |
| 1777847258 | 13.89° C | 60% | 1007.6 hPa | 0 mm | - | 48 W/m² | - |
| 1777846956 | 13.89° C | 59% | 1007.6 hPa | 0 mm | - | 56 W/m² | - |
| 1777846654 | 14.44° C | 56% | 1007.6 hPa | 0 mm | - | 70 W/m² | - |
| 1777846351 | 14.44° C | 54% | 1007.4 hPa | 0 mm | - | 125 W/m² | - |
| 1777846047 | 14.44° C | 54% | 1007.4 hPa | 0 mm | - | 138 W/m² | - |
| 1777845745 | 15° C | 53% | 1007.5 hPa | 0 mm | - | 124 W/m² | - |
* Rain latest hour (hover to see other rain measurements)
** Current wind speed in m/s (hover to see current wind gust speed)